COSMOS 252 DEB

Satellite information

Favourite Embed

Satellite Type and Status

DEBRISIN ORBIT

Key statistics

Satellite COSMOS 252 DEB at a glance.

Uptime

20862

Days in orbit

Revolutions

≈ 13.0

Per day

Orbit

LEO

Low Earth Orbit

Inclination

62.3

Latest

Satellite identification and parameters

Extended collection of information and parameters for COSMOS 252 DEB.

Object identification

Identified? True

Debris? True

Object name: COSMOS 252 DEB

International designator: 1968-097BG

Object number (NORAD): 3843

Object ID (CCSDS): 3843

Country: COMMONWEALTH OF INDEPENDENT STATES (CIS)

Current information (Y/N): Y

RCS size: SMALL

Orbital parameters

Period: 110.457 minutes

Inclination: 62.2623 deg

SMA: 7625.869 km

Apoapsis: 1779.03 km

Periapsis: 716.438 km

RAAN: 207.6227 deg

Eccentricy: 0.0696702

Argument of periapsis: 69.4393 deg

Mean anomaly: 297.9913 deg

Mean motion: 13.03673195 rev/day

Mean motion (dot): 0.00004226 rev/day2

B* drag term: 0.0041967 1/REarth

Two-line elements (TLE)

Creation date: Dec. 12, 2025, 7:16 a.m.

Reference frame: TEME

Reference center: EARTH

Epoch: Dec. 11, 2025, 9:48 p.m. UTC

TLE line 0: 0 COSMOS 252 DEB

TLE line 1: 1 3843U 68097BG 25345.90855801 .00004226 00000-0 41967-2 0 9996

TLE line 2: 2 3843 62.2623 207.6227 0696702 69.4393 297.9913 13.03673195642898

Live tracking on map

Real-time ground track for satellite COSMOS 252 DEB.

In-orbit conjunctions

A list of the most updated potential collisions computed for object COSMOS 252 DEB.

Target Orbit TCA Probability of collision Miss distance Type
IRIDIUM 69 LEO 2025-09-26 13:54:55 0.0005758199 146.0 (m) PAYLOAD
COSMOS 2255 LEO 2025-04-25 18:08:29 0.0001943946 108.0 (m) PAYLOAD

Associated space launch

The I2P satellites were the first soviet coorbital ASAT system.

COSMOS 252 DEB was lifted into orbit during the mission ‘Tsiklon-2A | I2P 2’, on board a Tsiklon-2A space rocket.

The launch took place on Nov. 1, 1968, 12:27 a.m. from 90/20.

For more information about the launch, click the button.

Launch to space Tsiklon-2A | I2P 2
Tsiklon-2A | I2P 2

Agency: N/A

Status: Launch Successful

Launch date: Nov. 1, 1968, 12:27 a.m. UTC

Rocket: Tsiklon-2A

Launch pad: 90/20

Location: Baikonur Cosmodrome, Republic of Kazakhstan

...

Latest news about this satellite

There are no fresh news available about this satellite. Check back as we update our databases every day.


Newsletter sign-up

Weekly statistics, charts and insights to help you stay on top of the space industry.